sat.trackr.live / text

‹ back to catalog

ONEWEB-0346

NORAD 49212 · 2021-083AC

PAYLOAD ACTIVE UNKNOWN

§ Identity

Operator
Country
UK
Launch date
2021-09-14
Launch site
TYMSC
Launch vehicle
Mass (kg)
RCS (m²)

Purposes: comms

External: N2YO · Heavens-Above · Gunter

§ Orbital elements

Epoch: 2026-05-25T01:53:34.258272Z

Period
109.20 min
Inclination
87.9160°
Eccentricity
0.0002475
Mean motion
13.18685790 rev/d
Perigee alt
1,187.9 km
Apogee alt
1,191.6 km
Semi-major
7,567.9 km
B*
7.1542e-5
RAAN
340.0582°
Arg perigee
93.0643°
Mean anomaly
267.0772°
Rev number
22,693

§ Raw data

ONEWEB-03461 49212U 21083AC  26145.07886873  .00000041  00000+0  71542-4 0  99942 49212  87.9160 340.0582 0002475  93.0643 267.0772 13.18685790226937

JSON: /api/v1/satellites/49212 · /tle

For live sub-satellite position, see the globe view (requires WebGL).

§ Visibility from observer

Set your observer location to see the next 7 days of passes ≥ 10°. The values pass through the URL so the page stays shareable.

No JS? Fill the form by hand. The geolocation button needs JavaScript.